| time (UTC) | temp C | wind direction | speed KPH | gust KPH | rain 1hr cm | rain 24hr cm | rain mn cm | humidity % | barometer mb |
| 20260831030518 | 13 | 225 | 11.3 | 22.5 | 0.00 | 0.48 | 0.00 | 90 | 1008.0 |
| 20260831025517 | 13 | 248 | 11.3 | 22.5 | 0.00 | 0.48 | 0.00 | 91 | 1008.1 |
| 20260831024519 | 13 | 225 | 9.7 | 19.3 | 0.00 | 0.48 | 0.00 | 91 | 1007.9 |
| 20260831023518 | 13 | 225 | 11.3 | 22.5 | 0.00 | 0.48 | 0.00 | 90 | 1007.8 |
| 20260831022518 | 13 | 225 | 9.7 | 16.1 | 0.00 | 0.48 | 0.00 | 90 | 1007.7 |
| 20260831021517 | 13 | 225 | 8.0 | 16.1 | 0.00 | 0.48 | 0.00 | 90 | 1007.6 |
| 20260831020518 | 13 | 225 | 11.3 | 19.3 | 0.00 | 0.48 | 0.00 | 90 | 1007.6 |
| 20260831015520 | 13 | 225 | 9.7 | 17.7 | 0.00 | 0.48 | 0.00 | 90 | 1007.4 |
| 20260831014520 | 13 | 225 | 12.9 | 22.5 | 0.00 | 0.48 | 0.00 | 90 | 1007.5 |
| 20260831013519 | 13 | 248 | 12.9 | 22.5 | 0.00 | 0.48 | 0.00 | 90 | 1007.4 |
| 20260831012519 | 13 | 225 | 9.7 | 24.1 | 0.00 | 0.48 | 0.00 | 91 | 1007.2 |
| 20260831011523 | 13 | 225 | 9.7 | 19.3 | 0.00 | 0.48 | 0.00 | 90 | 1007.3 |
| 20260831010517 | 13 | 225 | 9.7 | 16.1 | 0.00 | 0.48 | 0.00 | 90 | 1007.1 |
| 20260831005520 | 13 | 225 | 9.7 | 20.9 | 0.00 | 0.48 | 0.00 | 90 | 1007.1 |
| 20260831004518 | 13 | 225 | 11.3 | 19.3 | 0.00 | 0.48 | 0.00 | 90 | 1007.0 |
| 20260831003520 | 13 | 225 | 11.3 | 22.5 | 0.00 | 0.48 | 0.00 | 90 | 1007.1 |
| 20260831002519 | 13 | 225 | 11.3 | 22.5 | 0.00 | 0.48 | 0.00 | 90 | 1007.0 |
| 20260831001518 | 13 | 248 | 11.3 | 19.3 | 0.00 | 0.48 | 0.00 | 90 | 1006.9 |
| 20260831000519 | 13 | 225 | 11.3 | 20.9 | 0.00 | 0.48 | 0.00 | 90 | 1006.7 |
| 20260830235520 | 13 | 225 | 11.3 | 24.1 | 0.00 | 0.48 | 0.00 | 90 | 1006.4 |
| 20260830234519 | 13 | 225 | 9.7 | 19.3 | 0.00 | 0.48 | 0.00 | 90 | 1006.2 |
| 20260830233523 | 13 | 225 | 9.7 | 20.9 | 0.00 | 0.48 | 0.00 | 90 | 1006.1 |
| 20260830232519 | 13 | 225 | 9.7 | 17.7 | 0.00 | 0.48 | 0.00 | 90 | 1006.3 |
| 20260830231521 | 13 | 225 | 8.0 | 16.1 | 0.03 | 0.48 | 0.00 | 89 | 1006.2 |
| 20260830230521 | 14 | 225 | 8.0 | 16.1 | 0.05 | 0.51 | 0.00 | 89 | 1006.4 |
| 20260830225520 | 14 | 225 | 6.4 | 12.9 | 0.05 | 0.51 | 0.51 | 89 | 1006.0 |
| 20260830224521 | 15 | 225 | 9.7 | 17.7 | 0.05 | 0.51 | 0.51 | 90 | 1005.8 |
| 20260830223519 | 15 | 225 | 11.3 | 22.5 | 0.05 | 0.51 | 0.51 | 90 | 1005.7 |
| 20260830222541 | 15 | 225 | 12.9 | 27.4 | 0.05 | 0.51 | 0.51 | 90 | 1005.7 |
| 20260830221518 | 15 | 225 | 9.7 | 20.9 | 0.25 | 0.48 | 0.48 | 90 | 1005.7 |
| 20260830220519 | 15 | 225 | 9.7 | 17.7 | 0.33 | 0.46 | 0.46 | 90 | 1005.7 |
| 20260830215520 | 15 | 225 | 8.0 | 16.1 | 0.33 | 0.46 | 0.46 | 89 | 1005.7 |
| 20260830214539 | 15 | 225 | 9.7 | 19.3 | 0.33 | 0.46 | 0.46 | 89 | 1005.6 |
| 20260830213553 | 15 | 225 | 11.3 | 19.3 | 0.33 | 0.46 | 0.46 | 89 | 1005.6 |
| 20260830212518 | 15 | 225 | 9.7 | 22.5 | 0.30 | 0.43 | 0.43 | 89 | 1005.6 |
| 20260830211518 | 16 | 225 | 14.5 | 35.4 | 0.10 | 0.23 | 0.23 | 88 | 1005.5 |
| 20260830210518 | 16 | 225 | 9.7 | 16.1 | 0.03 | 0.15 | 0.15 | 87 | 1005.6 |
| 20260830205517 | 16 | 203 | 12.9 | 19.3 | 0.03 | 0.15 | 0.15 | 86 | 1005.4 |
| 20260830204538 | 16 | 203 | 9.7 | 19.3 | 0.03 | 0.15 | 0.15 | 87 | 1005.4 |
| 20260830203518 | 16 | 203 | 9.7 | 19.3 | 0.03 | 0.15 | 0.15 | 86 | 1005.5 |
| 20260830202600 | 16 | 203 | 14.5 | 29.0 | 0.03 | 0.15 | 0.15 | 85 | 1005.7 |
| 20260830201518 | 16 | 203 | 9.7 | 22.5 | 0.00 | 0.13 | 0.13 | 84 | 1005.6 |
| 20260830200521 | 16 | 203 | 11.3 | 19.3 | 0.00 | 0.13 | 0.13 | 85 | 1005.8 |
| 20260830195521 | 16 | 203 | 9.7 | 20.9 | 0.00 | 0.13 | 0.13 | 86 | 1006.1 |
| 20260830194522 | 16 | 225 | 9.7 | 17.7 | 0.00 | 0.13 | 0.13 | 86 | 1005.8 |
| 20260830193537 | 15 | 203 | 9.7 | 16.1 | 0.00 | 0.13 | 0.13 | 86 | 1005.9 |
| 20260830192517 | 15 | 203 | 8.0 | 11.3 | 0.00 | 0.13 | 0.13 | 86 | 1005.9 |
| 20260830191517 | 15 | 203 | 8.0 | 14.5 | 0.00 | 0.13 | 0.13 | 86 | 1005.9 |
| 20260830190517 | 16 | 225 | 8.0 | 14.5 | 0.00 | 0.13 | 0.13 | 86 | 1005.9 |
| 20260830185539 | 16 | 203 | 9.7 | 19.3 | 0.00 | 0.13 | 0.13 | 86 | 1006.2 |
| 20260830184520 | 16 | 203 | 8.0 | 17.7 | 0.00 | 0.13 | 0.13 | 86 | 1006.0 |
| 20260830183520 | 16 | 203 | 6.4 | 12.9 | 0.08 | 0.13 | 0.13 | 87 | 1006.2 |
| 20260830182521 | 16 | 225 | 6.4 | 12.9 | 0.08 | 0.13 | 0.13 | 86 | 1006.3 |
| 20260830181519 | 16 | 203 | 8.0 | 17.7 | 0.08 | 0.13 | 0.13 | 86 | 1006.1 |
| 20260830180540 | 16 | 225 | 12.9 | 25.7 | 0.08 | 0.13 | 0.13 | 86 | 1006.1 |
| 20260830175520 | 17 | 225 | 12.9 | 22.5 | 0.08 | 0.13 | 0.13 | 86 | 1006.1 |
| 20260830174522 | 17 | 203 | 14.5 | 32.2 | 0.08 | 0.13 | 0.13 | 84 | 1005.9 |
| 20260830173539 | 18 | 203 | 17.7 | 30.6 | 0.03 | 0.05 | 0.05 | 80 | 1006.0 |
| 20260830172520 | 18 | 203 | 11.3 | 25.7 | 0.03 | 0.05 | 0.05 | 80 | 1006.0 |
| 20260830171520 | 18 | 203 | 12.9 | 22.5 | 0.03 | 0.05 | 0.05 | 81 | 1006.1 |
| 20260830170522 | 17 | 203 | 16.1 | 29.0 | 0.03 | 0.05 | 0.05 | 83 | 1006.2 |
| 20260830165516 | 17 | 203 | 12.9 | 22.5 | 0.03 | 0.05 | 0.05 | 84 | 1006.4 |
| 20260830164518 | 18 | 203 | 14.5 | 35.4 | 0.03 | 0.05 | 0.05 | 82 | 1006.4 |
| 20260830163537 | 18 | 203 | 14.5 | 27.4 | 0.00 | 0.03 | 0.03 | 80 | 1006.5 |
| 20260830162541 | 18 | 203 | 12.9 | 22.5 | 0.00 | 0.03 | 0.03 | 79 | 1006.9 |
| 20260830161521 | 19 | 203 | 12.9 | 25.7 | 0.00 | 0.03 | 0.03 | 77 | 1007.1 |
| 20260830160524 | 19 | 203 | 17.7 | 32.2 | 0.00 | 0.03 | 0.03 | 76 | 1007.2 |
| 20260830155541 | 20 | 203 | 17.7 | 33.8 | 0.00 | 0.05 | 0.03 | 76 | 1007.2 |
| 20260830154521 | 20 | 203 | 16.1 | 33.8 | 0.00 | 0.05 | 0.03 | 78 | 1007.0 |
| 20260830153521 | 19 | 203 | 19.3 | 37.0 | 0.00 | 0.05 | 0.03 | 79 | 1007.0 |
| 20260830152523 | 19 | 203 | 17.7 | 37.0 | 0.00 | 0.05 | 0.03 | 80 | 1007.1 |
| 20260830151544 | 19 | 203 | 16.1 | 30.6 | 0.00 | 0.05 | 0.03 | 79 | 1007.1 |
| 20260830150521 | 19 | 180 | 11.3 | 25.7 | 0.00 | 0.05 | 0.03 | 79 | 1006.9 |
| 20260830145539 | 19 | 180 | 14.5 | 27.4 | 0.00 | 0.05 | 0.03 | 77 | 1007.2 |
| 20260830144525 | 19 | 203 | 11.3 | 20.9 | 0.00 | 0.05 | 0.03 | 76 | 1007.9 |
| 20260830143518 | 19 | 203 | 16.1 | 29.0 | 0.00 | 0.05 | 0.03 | 76 | 1008.0 |
| 20260830142524 | 19 | 203 | 12.9 | 24.1 | 0.00 | 0.05 | 0.03 | 76 | 1008.2 |
| 20260830141521 | 20 | 203 | 11.3 | 25.7 | 0.00 | 0.05 | 0.03 | 76 | 1008.4 |
| 20260830140527 | 20 | 248 | 11.3 | 22.5 | 0.00 | 0.05 | 0.03 | 73 | 1008.5 |
| 20260830135541 | 20 | 203 | 17.7 | 33.8 | 0.00 | 0.05 | 0.03 | 71 | 1008.4 |
| 20260830134518 | 20 | 248 | 19.3 | 40.2 | 0.00 | 0.15 | 0.03 | 69 | 1008.6 |
| 20260830133519 | 21 | 225 | 17.7 | 27.4 | 0.00 | 0.18 | 0.03 | 68 | 1008.6 |
| 20260830132522 | 21 | 203 | 20.9 | 40.2 | 0.00 | 0.18 | 0.03 | 66 | 1008.7 |
| 20260830131603 | 21 | 203 | 16.1 | 29.0 | 0.00 | 0.18 | 0.03 | 65 | 1008.4 |
| 20260830130521 | 22 | 203 | 19.3 | 32.2 | 0.00 | 0.18 | 0.03 | 63 | 1008.4 |
| 20260830125520 | 23 | 203 | 16.1 | 32.2 | 0.00 | 0.20 | 0.03 | 63 | 1008.5 |
| 20260830124522 | 22 | 180 | 12.9 | 25.7 | 0.00 | 0.30 | 0.03 | 66 | 1008.5 |
| 20260830123521 | 23 | 203 | 14.5 | 25.7 | 0.00 | 0.69 | 0.03 | 63 | 1008.6 |
| 20260830122524 | 23 | 203 | 19.3 | 35.4 | 0.00 | 1.27 | 0.03 | 63 | 1008.8 |
| 20260830121523 | 22 | 180 | 14.5 | 27.4 | 0.00 | 1.27 | 0.03 | 65 | 1008.8 |
| 20260830120521 | 22 | 203 | 17.7 | 35.4 | 0.00 | 1.27 | 0.03 | 64 | 1009.0 |
| 20260830115523 | 22 | 203 | 16.1 | 30.6 | 0.00 | 1.27 | 0.03 | 65 | 1009.1 |
| 20260830114543 | 22 | 203 | 16.1 | 27.4 | 0.00 | 1.27 | 0.03 | 62 | 1009.3 |
| 20260830113521 | 22 | 180 | 19.3 | 29.0 | 0.00 | 1.30 | 0.03 | 62 | 1009.1 |
| 20260830112519 | 22 | 203 | 14.5 | 24.1 | 0.00 | 1.30 | 0.03 | 64 | 1009.3 |
| 20260830111519 | 21 | 203 | 20.9 | 37.0 | 0.00 | 1.30 | 0.03 | 67 | 1009.5 |
| 20260830110519 | 21 | 225 | 16.1 | 30.6 | 0.00 | 1.37 | 0.03 | 70 | 1009.6 |
| 20260830105524 | 21 | 203 | 16.1 | 33.8 | 0.00 | 1.42 | 0.03 | 68 | 1009.6 |
| 20260830104520 | 21 | 203 | 16.1 | 25.7 | 0.00 | 1.45 | 0.03 | 69 | 1009.6 |
| 20260830103523 | 21 | 203 | 16.1 | 25.7 | 0.00 | 1.45 | 0.03 | 68 | 1009.8 |
| 20260830102525 | 22 | 203 | 12.9 | 24.1 | 0.00 | 1.50 | 0.03 | 66 | 1009.8 |
| 20260830100524 | 21 | 203 | 11.3 | 24.1 | 0.00 | 1.50 | 0.03 | 72 | 1010.3 |
| 20260830095544 | 21 | 203 | 14.5 | 24.1 | 0.00 | 1.78 | 0.03 | 70 | 1010.4 |
| 20260830094522 | 21 | 203 | 11.3 | 27.4 | 0.00 | 2.03 | 0.03 | 71 | 1010.3 |
| 20260830093521 | 21 | 203 | 12.9 | 20.9 | 0.00 | 2.03 | 0.03 | 72 | 1010.1 |
| 20260830092521 | 20 | 203 | 12.9 | 25.7 | 0.00 | 2.03 | 0.03 | 73 | 1010.2 |
| 20260830091523 | 20 | 203 | 12.9 | 25.7 | 0.00 | 2.03 | 0.03 | 77 | 1010.1 |
| 20260830090518 | 18 | 203 | 9.7 | 17.7 | 0.00 | 2.03 | 0.03 | 80 | 1010.1 |
| 20260830085523 | 18 | 203 | 12.9 | 20.9 | 0.00 | 2.03 | 0.03 | 80 | 1010.2 |
| 20260830084523 | 18 | 203 | 12.9 | 22.5 | 0.00 | 2.03 | 0.03 | 81 | 1010.3 |
| 20260830083521 | 18 | 225 | 11.3 | 17.7 | 0.00 | 2.03 | 0.03 | 82 | 1010.3 |
| 20260830082521 | 18 | 225 | 9.7 | 17.7 | 0.00 | 2.03 | 0.03 | 83 | 1010.3 |
| 20260830081521 | 18 | 203 | 14.5 | 25.7 | 0.00 | 2.03 | 0.03 | 81 | 1010.2 |
| 20260830080522 | 18 | 203 | 12.9 | 19.3 | 0.00 | 2.03 | 0.03 | 84 | 1010.4 |
| 20260830075521 | 18 | 203 | 11.3 | 17.7 | 0.00 | 2.03 | 0.03 | 83 | 1010.4 |
| 20260830074518 | 18 | 203 | 4.8 | 14.5 | 0.00 | 2.03 | 0.03 | 84 | 1010.3 |
| 20260830073518 | 18 | 203 | 4.8 | 11.3 | 0.00 | 2.03 | 0.03 | 86 | 1010.1 |
| 20260830072521 | 16 | 0.0 | 1.6 | 0.00 | 2.03 | 0.03 | 89 | 1010.2 | |
| 20260830071520 | 16 | 0.0 | 3.2 | 0.00 | 2.03 | 0.03 | 90 | 1010.3 | |
| 20260830070520 | 15 | 203 | 1.6 | 8.0 | 0.00 | 2.03 | 0.03 | 90 | 1010.4 |
| 20260830065524 | 15 | 248 | 1.6 | 4.8 | 0.00 | 2.03 | 0.03 | 92 | 1010.4 |
| 20260830064541 | 15 | 203 | 1.6 | 4.8 | 0.00 | 2.06 | 0.03 | 91 | 1010.4 |
| 20260830063539 | 15 | 203 | 3.2 | 8.0 | 0.00 | 2.08 | 0.03 | 92 | 1010.3 |
| 20260830062519 | 15 | 203 | 1.6 | 6.4 | 0.00 | 2.18 | 0.03 | 92 | 1010.4 |
| 20260830061521 | 14 | 203 | 1.6 | 4.8 | 0.00 | 2.21 | 0.03 | 92 | 1010.5 |
| 20260830060522 | 14 | 225 | 1.6 | 6.4 | 0.00 | 2.29 | 0.03 | 92 | 1010.6 |
| 20260830055518 | 14 | 248 | 3.2 | 6.4 | 0.00 | 2.34 | 0.03 | 92 | 1010.4 |
| 20260830054517 | 13 | 225 | 3.2 | 4.8 | 0.00 | 2.39 | 0.03 | 92 | 1010.4 |
| 20260830053518 | 13 | 248 | 3.2 | 4.8 | 0.00 | 2.44 | 0.03 | 92 | 1010.2 |
| 20260830052520 | 13 | 203 | 1.6 | 4.8 | 0.00 | 2.49 | 0.03 | 91 | 1010.3 |
| 20260830051639 | 13 | 203 | 1.6 | 4.8 | 0.00 | 2.49 | 0.03 | 90 | 1010.2 |
| 20260830050521 | 13 | 203 | 3.2 | 4.8 | 0.00 | 2.54 | 0.03 | 90 | 1010.2 |
| 20260830045520 | 14 | 225 | 4.8 | 6.4 | 0.00 | 2.57 | 0.03 | 90 | 1010.3 |
| 20260830044518 | 14 | 203 | 4.8 | 8.0 | 0.00 | 2.57 | 0.03 | 90 | 1010.3 |
| 20260830043517 | 14 | 203 | 3.2 | 6.4 | 0.00 | 2.59 | 0.03 | 90 | 1010.2 |
| 20260830042517 | 14 | 225 | 4.8 | 8.0 | 0.00 | 2.59 | 0.03 | 90 | 1010.3 |
| 20260830041518 | 14 | 203 | 1.6 | 6.4 | 0.00 | 2.59 | 0.03 | 90 | 1010.3 |
| 20260830040517 | 15 | 0.0 | 1.6 | 0.00 | 2.59 | 0.03 | 90 | 1010.3 | |
| 20260830035517 | 15 | 225 | 3.2 | 8.0 | 0.00 | 2.59 | 0.03 | 90 | 1010.3 |
| 20260830034540 | 15 | 225 | 4.8 | 6.4 | 0.00 | 2.59 | 0.03 | 89 | 1010.4 |
| 20260830033518 | 15 | 225 | 4.8 | 11.3 | 0.00 | 2.59 | 0.03 | 90 | 1010.4 |
| 20260830032520 | 15 | 225 | 6.4 | 12.9 | 0.00 | 2.59 | 0.03 | 90 | 1010.4 |
| 20260830031519 | 15 | 225 | 6.4 | 12.9 | 0.00 | 2.59 | 0.03 | 90 | 1010.3 |